Location: Biltmore Gardens
(41.6070°N, 83.4666°W)
Time: 15:10:18
(UTC+00:00)

Cosmos 1697 Rocket - Pass Details

Date: 14 July 2020
Orbit: 834 x 842 km, 71.0° (Epoch: 13 August)

Event Time Altitude Azimuth Distance (km) Brightness Sun altitude
Rises 08:58:15 0° 322° (NW) 3,392 5.9 -11.9°
Reaches altitude 10° 09:01:12 10° 308° (NW) 2,452 5.0 -11.5°
Maximum altitude 09:05:23 22° 259° (W) 1,750 3.9 -10.9°
Enters shadow 09:08:51 13° 216° (SW) 2,247 4.3 -10.5°
